Regional Weather Roundup
Issued by NWS Cleveland, OH

Home | Current Version | Previous Version | Graphics & Text | Print | Product List | Glossary On
Versions: 1 2 3 4 5 6 7 8 9 10 11 12 13 14 15 16 17 18 19 20 21 22 23 24 25 26 27 28 29 30 31 32 33 34 35 36 37 38 39 40 41 42 43 44 45 46 47 48 49 50
000
ASUS41 KCLE 271312
RWRCLE
OHIO REGIONAL WEATHER ROUNDUP
NATIONAL WEATHER SERVICE WILMINGTON, OH
900 AM EDT THU APR 27 2017

NOTE: "FAIR" INDICATES FEW OR NO CLOUDS BELOW 12,000 FEET WITH NO
SIGNIFICANT WEATHER AND/OR OBSTRUCTIONS TO VISIBILITY.

OHZ001>008-015>018-024>027-034-035-043-044-271400-
   NORTHWEST OHIO

CITY           SKY/WX    TMP DP  RH WIND       PRES   REMARKS
DEFIANCE       PTSUNNY   64  51  62 S18G24    29.51R
FINDLAY        FAIR      70  55  59 S10       29.54R
TOLEDO EXPRESS FAIR      67  51  56 S8        29.51S
TOLEDO EXEC    FAIR      68  53  58 S7        29.53F
LIMA           FAIR      66  53  63 S9        29.55F
$$

OHZ009>014-019>023-028>033-038-089-271400-
   NORTHEAST OHIO

CITY           SKY/WX    TMP DP  RH WIND       PRES   REMARKS
CLE-HOPKINS    PTSUNNY   71  53  52 S13       29.61F
CLE-LAKEFRONT  FAIR      71  54  54 S14       29.58F
CUY CO. ARPT   PTSUNNY   72  57  60 S12       29.62F
LORAIN-ELYRIA  FAIR      70  53  54 S14       29.58F
ASHTABULA      FAIR      70  58  65 S8        29.66F
AKRON-CANTON   PTSUNNY   70  56  61 S16       29.66S
WOOSTER        FAIR      68  55  63 S12       29.64F
MANSFIELD      FAIR      70  55  59 S20G30    29.59F
YOUNGSTOWN     CLOUDY    70  56  61 S12       29.68S
$$

OHZ042-051>053-060>062-070>072-077>081-271400-
  SOUTHWEST OHIO

CITY           SKY/WX    TMP DP  RH WIND       PRES   REMARKS
CINC-COVINGTON CLOUDY    65  56  72 SW8       29.58S THUNDER
CINC-LUNKEN    CLOUDY    68  59  73 CALM      29.58S
HAMILTON       CLOUDY    67  57  70 VRB3      29.58S
DAYTON         LGT RAIN  66  54  65 S13       29.57R
WRIGHT-PAT AFB PTSUNNY   69  58  68 S13       29.57R
DAYTON GENERAL PTSUNNY   66  55  67 S12       29.57R
WILMINGTON     FAIR      68  59  73 S15       29.59R
$$

OHZ036-037-039>041-045>050-054>059-063>069-073>076-082>088-271400-
  CENTRAL AND SOUTHEAST OHIO

CITY           SKY/WX    TMP DP  RH WIND       PRES   REMARKS
COLUMBUS       CLOUDY    71  56  58 S14       29.60S
OSU AIRPORT    FAIR      70  57  63 S15       29.60R
BOLTON FIELD   MOSUNNY   68  57  68 S14       29.61R
RICKENBACK AFB FAIR      69  56  62 S14G21    29.61R
NEWARK         FAIR      71  55  56 S10       29.61F
MARION         FAIR      71  56  58 S20G26    29.56F
LANCASTER      FAIR      72  56  57 S14       29.63S
ZANESVILLE     FAIR      69  57  65 SE8       29.65F
NEW PHILLY     FAIR      71  57  61 S8        29.67S
$$



USA.gov is the U.S. government's official web portal to all federal, state and local government web resources and services.